OBJECT D, 43761

Orbit data source: Space-Track

You're viewing an Uncataloged Satellite

Recently launched and/or uncataloged satellites may have evolving metadata. Metadata may include but not limited to: Owner, Maufacturer, Bus, Motor, and Mission.

OBJECT D, 43761 is a satellite in SSO that was launched on Mon, 03 Dec 2018 UTC via an FALCON 9 launch vehicle from the Air Force Western Test Range (AFWTR). Unknown objects in Earth's orbit typically refer to objects detected orbiting the Earth but have not yet been identified or cataloged. These objects could be anything from previously untracked satellites, spent rocket stages, debris from satellite collisions, or even natural meteoroids temporarily captured by Earth's gravity.

Loading next visibility...
Identifier
43761, 2018-099D
Orbit
SSO
Country
Flag of TBDTBD
Related business
None
Manufacturer
Unknown
Mission
Non-operational Amateur Technology
Bus & Motor
Unknown
Mass
Unknown
Launch date (UTC)
2018-12-03 (7 years ago)
Launch vehicle
FALCON 9
Launch site
Air Force Western Test Range (AFWTR)
Object type
Unknown
Shape & HBR
Box, 0.1 m
Radar Cross Section
0.015 m², Small (<0.1 m²)

Expand to show TLE details & history
Last TLE update: 1 day ago

TLE from 1 day ago
0 OBJECT D
1 43761U 18099D   26134.08270541  .00001182  00000-0  84144-4 0  9998
2 43761  97.4200 176.1585 0013125 100.9543 259.3162 15.06402702406973
Epoch: 2026-05-14T01:59Z
TLE epoch observation values (Epoch: 2026-05-14T01:59:05.747Z)
Latitude
-0.00002°
Longitude
-85.44892°
Altitude
551.972 km
Speed
7.585 km/s
True Right ascension
11h 44m 38s
True Declination
0° 00' 00"
Sunlit
Object was in full shadow at epoch
Visualization orbit readout
Latitude
Unknown
Longitude
Unknown
Altitude
Unknown
Speed
Unknown
Apparent Right ascension
Unknown
Apparent Declination
Unknown
Sunlit
N/A
Visualization observer readout
Local Sidereal Time
18:54:04
Azimuth
Unknown
Elevation
Unknown
Doppler factor
Unknown
Orbital elements
Apogee altitude
553.273 km
Perigee altitude
535.102 km
Semi-major axis
6,922.325 km
Eccentricity
0.00131
Inclination
97.42°
RAAN
176.1585°
Arg. of periapsis
100.9543°
True anomaly
259.16845°
Mean anomaly
259.3162°
Eccentric anomaly
259.24232°
Mean motion
3.76847 °/min
Orbital period
95.53 mins
BSTAR
0.000084144
Loading maneuver chart data...
Computing Atmospheric mass density...
Loading historical data...
Loading historical data...
Loading historical data...
Loading historical data...
Loading historical data...
Loading historical data...
Loading historical data...

Documentation

Showing up to 5 results
|